Norfolk, NE

2:22 PM CDT on July 22, 2017 (GMT -0500)
Stefan Memorial

Weather History for KOFK - August, 2013

Change the Weather History Date:

Saturday, August 3, 2013

  Actual Average Record
Temperature  
Mean Temperature 67 °F 74 °F  
Max Temperature 75 °F 86 °F 106 °F (1930)
Min Temperature 59 °F 63 °F 45 °F (1894)
Degree Days  
Heating Degree Days 0 0  
Month to date heating degree days 0 0  
Since 1 June heating degree days 55 34  
Since 1 July heating degree days 13 4  
Cooling Degree Days 2 10  
Month to date cooling degree days 15 30  
Year to date cooling degree days 553 591  
Since 1 June cooling degree days 489 530  
Growing Degree Days 18 (Base 50)    
Moisture  
Dew Point 57 °F    
Average Humidity 70    
Maximum Humidity 87    
Minimum Humidity 53    
Precipitation  
Precipitation T in 0.10 in 2.30 in (1994)
Month to date precipitation 1.14 0.32  
Year to date precipitation 15.97 17.60  
Snow  
Snow 0.00 in 0.00 in - ()
Month to date snowfall 0.0 0.0  
Since 1 July snowfall 0.0 0.0  
Snow Depth 0.00 in    
Sea Level Pressure  
Sea Level Pressure 30.14 in    
Wind  
Wind Speed 5 mph (ENE)    
Max Wind Speed 14 mph    
Max Gust Speed 17 mph    
Visibility 10 miles    
Events      
T = Trace of Precipitation, MM = Missing Value Source: NWS Daily Summary

Daily Weather History Graph

Daily Weather History Graph

Search for Another Location

Airport or City:

Trip Planner

Search our weather history database for the weather conditions in past years. The results will help you decide how hot, cold, wet, or windy it might be!

Date:

Astronomy

Aug. 03, 2013 Rise Set
Actual Time 6:25 AM CDT 8:45 PM CDT
Civil Twilight 5:54 AM CDT 9:16 PM CDT
Nautical Twilight 5:15 AM CDT 9:55 PM CDT
Astronomical Twilight 4:32 AM CDT 10:38 PM CDT
Moon 3:35 AM CDT (8/3) 6:29 PM CDT (8/3)
Length of Visible Light 15h 22m
Length of Day
14h 20m
Waning Crescent, 9% of the Moon is Illuminated
Aug 3
Waning Crescent
Aug 6
New
Aug 14
First Quarter
Aug 20
Full
Aug 28
Last Quarter

Hourly Weather History & Observations

Time (CDT) Temp. Dew Point Humidity Pressure Visibility Wind Dir Wind Speed Gust Speed Precip Events Conditions
12:56 AM 66.0 °F 60.1 °F 81% 30.05 in 10.0 mi East 5.8 mph - N/A   Overcast
1:56 AM 64.9 °F 60.1 °F 84% 30.06 in 10.0 mi East 5.8 mph - N/A   Overcast
2:56 AM 64.0 °F 59.0 °F 84% 30.07 in 10.0 mi ENE 3.5 mph - N/A   Overcast
3:56 AM 63.0 °F 57.9 °F 84% 30.07 in 10.0 mi East 4.6 mph - N/A   Overcast
4:56 AM 62.1 °F 57.9 °F 86% 30.08 in 10.0 mi Calm Calm - N/A   Mostly Cloudy
5:56 AM 62.1 °F 57.0 °F 84% 30.09 in 10.0 mi ENE 3.5 mph - N/A   Overcast
6:56 AM 63.0 °F 57.9 °F 84% 30.12 in 10.0 mi ENE 3.5 mph - N/A   Mostly Cloudy
7:56 AM 66.0 °F 57.9 °F 75% 30.13 in 10.0 mi NE 5.8 mph - N/A   Clear
8:56 AM 68.0 °F 55.9 °F 65% 30.15 in 10.0 mi ENE 10.4 mph - N/A   Scattered Clouds
9:56 AM 69.1 °F 57.0 °F 65% 30.16 in 10.0 mi NE 10.4 mph - N/A   Clear
10:56 AM 69.1 °F 55.9 °F 63% 30.18 in 10.0 mi East 9.2 mph - N/A   Clear
11:56 AM 69.1 °F 55.9 °F 63% 30.20 in 10.0 mi ENE 5.8 mph - N/A   Clear
12:56 PM 70.0 °F 55.9 °F 61% 30.20 in 10.0 mi East 4.6 mph - N/A   Clear
1:56 PM 69.1 °F 55.0 °F 61% 30.17 in 10.0 mi SSE 8.1 mph - N/A   Clear
2:56 PM 72.0 °F 55.9 °F 57% 30.17 in 10.0 mi ESE 10.4 mph - 0.00 in   Clear
3:56 PM 73.0 °F 55.0 °F 53% 30.16 in 10.0 mi Variable 5.8 mph - N/A   Clear
4:56 PM 75.0 °F 57.0 °F 53% 30.13 in 10.0 mi ENE 10.4 mph - N/A   Clear
5:56 PM 75.0 °F 57.0 °F 53% 30.14 in 10.0 mi NE 9.2 mph - N/A   Clear
6:56 PM 73.0 °F 55.9 °F 55% 30.16 in 10.0 mi East 9.2 mph - N/A   Clear
7:56 PM 70.0 °F 57.0 °F 63% 30.16 in 10.0 mi East 4.6 mph - N/A   Clear
8:56 PM 68.0 °F 57.9 °F 70% 30.17 in 10.0 mi East 3.5 mph - N/A   Clear
9:56 PM 64.9 °F 57.9 °F 78% 30.19 in 10.0 mi Calm Calm - N/A   Clear
10:56 PM 63.0 °F 57.0 °F 81% 30.19 in 10.0 mi Calm Calm - N/A   Clear
11:56 PM 62.1 °F 57.0 °F 84% 30.20 in 10.0 mi Calm Calm - N/A   Clear